Time,TemperatureF,DewpointF,PressureIn,WindDirection,WindDirectionDegrees,WindSpeedMPH,WindSpeedGustMPH,Humidity,HourlyPrecipIn,Conditions,Clouds,dailyrainin,SoftwareType,DateUTC
2017-05-27 00:05:00,64.1,63.0,29.88,NE,45,2.0,-999.0,98,0.00,,,0.00,,2017-05-27 04:05:00,
2017-05-27 00:10:00,64.1,63.0,29.88,ENE,68,3.0,-999.0,98,0.00,,,0.00,,2017-05-27 04:10:00,
2017-05-27 00:15:00,63.9,63.0,29.87,ENE,68,2.0,-999.0,98,0.00,,,0.00,,2017-05-27 04:15:00,
2017-05-27 00:21:00,63.9,63.0,29.86,East,90,3.0,-999.0,98,0.00,,,0.00,,2017-05-27 04:21:00,
2017-05-27 00:26:00,63.9,63.0,29.87,NNE,23,2.0,-999.0,98,0.00,,,0.00,,2017-05-27 04:26:00,
2017-05-27 00:32:00,63.6,63.0,29.87,NNE,23,2.0,-999.0,98,0.00,,,0.00,,2017-05-27 04:32:00,
2017-05-27 00:37:00,63.4,63.0,29.87,East,90,2.0,-999.0,98,0.00,,,0.00,,2017-05-27 04:37:00,
2017-05-27 00:42:00,63.2,63.0,29.87,ENE,68,1.0,-999.0,98,0.00,,,0.00,,2017-05-27 04:42:00,
2017-05-27 00:48:00,63.2,63.0,29.87,East,90,2.0,-999.0,98,0.00,,,0.00,,2017-05-27 04:48:00,
2017-05-27 00:53:00,63.0,62.0,29.87,SSE,158,2.0,-999.0,98,0.00,,,0.00,,2017-05-27 04:53:00,
2017-05-27 00:59:00,63.2,63.0,29.87,ESE,113,3.0,-999.0,98,0.00,,,0.00,,2017-05-27 04:59:00,
2017-05-27 01:04:00,63.2,63.0,29.87,SSE,158,2.0,-999.0,98,0.00,,,0.00,,2017-05-27 05:04:00,
2017-05-27 01:09:00,63.4,63.0,29.87,South,180,4.0,-999.0,98,0.00,,,0.00,,2017-05-27 05:09:00,
2017-05-27 01:15:00,63.6,63.0,29.86,South,180,2.0,-999.0,98,0.00,,,0.00,,2017-05-27 05:15:00,
2017-05-27 01:20:00,63.6,63.0,29.86,South,180,2.0,-999.0,98,0.00,,,0.00,,2017-05-27 05:20:00,
2017-05-27 01:25:00,63.9,63.0,29.86,South,180,4.0,-999.0,98,0.00,,,0.00,,2017-05-27 05:25:00,
2017-05-27 01:31:00,63.9,63.0,29.86,SSE,158,4.0,-999.0,98,0.00,,,0.00,,2017-05-27 05:31:00,
2017-05-27 01:36:00,63.9,63.0,29.85,ESE,113,4.0,-999.0,98,0.00,,,0.00,,2017-05-27 05:36:00,
2017-05-27 01:41:00,63.9,63.0,29.86,South,180,2.0,-999.0,98,0.00,,,0.00,,2017-05-27 05:41:00,
2017-05-27 01:47:00,63.9,63.0,29.85,South,180,5.0,-999.0,98,0.00,,,0.00,,2017-05-27 05:47:00,
2017-05-27 01:52:00,63.9,63.0,29.85,South,180,3.0,-999.0,98,0.00,,,0.00,,2017-05-27 05:52:00,
2017-05-27 01:58:00,63.9,63.0,29.86,SSE,158,3.0,-999.0,98,0.00,,,0.00,,2017-05-27 05:58:00,
2017-05-27 02:03:00,63.9,63.0,29.85,SE,135,2.0,-999.0,98,0.00,,,0.00,,2017-05-27 06:03:00,
2017-05-27 02:08:00,63.9,63.0,29.84,SSE,158,4.0,-999.0,98,0.00,,,0.00,,2017-05-27 06:08:00,
2017-05-27 02:14:00,63.9,63.0,29.84,South,180,4.0,-999.0,98,0.00,,,0.00,,2017-05-27 06:14:00,
2017-05-27 02:19:00,63.9,63.0,29.84,SE,135,2.0,-999.0,98,0.00,,,0.00,,2017-05-27 06:19:00,
2017-05-27 02:25:00,63.9,63.0,29.84,SSW,203,2.0,-999.0,98,0.00,,,0.00,,2017-05-27 06:25:00,
2017-05-27 02:30:00,63.9,63.0,29.84,SSE,158,3.0,-999.0,98,0.00,,,0.00,,2017-05-27 06:30:00,
2017-05-27 02:35:00,63.9,63.0,29.84,South,180,3.0,-999.0,98,0.00,,,0.00,,2017-05-27 06:35:00,
2017-05-27 02:41:00,63.9,63.0,29.84,South,180,5.0,-999.0,98,0.00,,,0.00,,2017-05-27 06:41:00,
2017-05-27 02:46:00,63.9,63.0,29.84,South,180,4.0,-999.0,98,0.00,,,0.00,,2017-05-27 06:46:00,
2017-05-27 02:52:00,63.9,63.0,29.83,South,180,3.0,-999.0,98,0.00,,,0.00,,2017-05-27 06:52:00,
2017-05-27 02:57:00,63.9,63.0,29.83,South,180,3.0,-999.0,98,0.00,,,0.00,,2017-05-27 06:57:00,
2017-05-27 03:02:00,63.9,63.0,29.83,SSE,158,2.0,-999.0,98,0.00,,,0.00,,2017-05-27 07:02:00,
2017-05-27 03:08:00,63.9,63.0,29.84,South,180,2.0,-999.0,98,0.00,,,0.00,,2017-05-27 07:08:00,
2017-05-27 03:13:00,63.4,63.0,29.83,ENE,68,1.0,-999.0,98,0.00,,,0.00,,2017-05-27 07:13:00,
2017-05-27 03:18:00,63.2,63.0,29.84,North,0,0.0,-999.0,98,0.00,,,0.00,,2017-05-27 07:18:00,
2017-05-27 03:24:00,63.0,62.0,29.84,ESE,113,0.0,-999.0,98,0.00,,,0.00,,2017-05-27 07:24:00,
2017-05-27 03:35:00,63.0,62.0,29.84,ESE,113,2.0,-999.0,98,0.00,,,0.00,,2017-05-27 07:35:00,
2017-05-27 03:40:00,63.0,62.0,29.84,West,270,1.0,-999.0,98,0.00,,,0.00,,2017-05-27 07:40:00,
2017-05-27 03:45:00,62.7,62.0,29.84,East,90,0.0,-999.0,98,0.00,,,0.00,,2017-05-27 07:45:00,
2017-05-27 03:51:00,62.7,62.0,29.83,SSE,158,0.0,-999.0,98,0.00,,,0.00,,2017-05-27 07:51:00,
2017-05-27 03:56:00,62.7,62.0,29.84,West,270,0.0,-999.0,98,0.00,,,0.00,,2017-05-27 07:56:00,
2017-05-27 04:02:00,63.0,62.0,29.84,South,180,0.0,-999.0,98,0.00,,,0.00,,2017-05-27 08:02:00,
2017-05-27 04:07:00,63.0,62.0,29.83,SSE,158,1.0,-999.0,98,0.00,,,0.00,,2017-05-27 08:07:00,
2017-05-27 04:12:00,62.7,62.0,29.84,SSE,158,2.0,-999.0,98,0.00,,,0.00,,2017-05-27 08:12:00,
2017-05-27 04:17:00,62.5,62.0,29.84,South,180,2.0,-999.0,98,0.00,,,0.00,,2017-05-27 08:17:00,
2017-05-27 04:23:00,62.5,62.0,29.84,SSE,158,2.0,-999.0,98,0.00,,,0.00,,2017-05-27 08:23:00,
2017-05-27 04:28:00,62.5,62.0,29.84,SSE,158,2.0,-999.0,98,0.00,,,0.00,,2017-05-27 08:28:00,
2017-05-27 04:34:00,62.7,62.0,29.84,SSW,203,1.0,-999.0,98,0.00,,,0.00,,2017-05-27 08:34:00,
2017-05-27 04:39:00,63.0,62.0,29.83,SSE,158,2.0,-999.0,98,0.00,,,0.00,,2017-05-27 08:39:00,
2017-05-27 04:44:00,63.0,62.0,29.83,SSW,203,1.0,-999.0,98,0.00,,,0.00,,2017-05-27 08:44:00,
2017-05-27 04:50:00,63.0,62.0,29.84,WNW,293,0.0,-999.0,98,0.00,,,0.00,,2017-05-27 08:50:00,
2017-05-27 04:55:00,63.0,62.0,29.84,NNW,338,0.0,-999.0,98,0.00,,,0.00,,2017-05-27 08:55:00,
2017-05-27 05:01:00,63.0,62.0,29.84,ESE,113,0.0,-999.0,98,0.00,,,0.00,,2017-05-27 09:01:00,
2017-05-27 05:06:00,63.0,62.0,29.84,East,90,0.0,-999.0,98,0.00,,,0.00,,2017-05-27 09:06:00,
2017-05-27 05:11:00,63.2,63.0,29.84,North,0,0.0,-999.0,98,0.00,,,0.00,,2017-05-27 09:11:00,
2017-05-27 05:17:00,63.2,63.0,29.84,NNE,23,0.0,-999.0,98,0.00,,,0.00,,2017-05-27 09:17:00,
2017-05-27 05:22:00,63.2,63.0,29.84,SSE,158,0.0,-999.0,98,0.00,,,0.00,,2017-05-27 09:22:00,
2017-05-27 05:28:00,63.6,63.0,29.84,SSE,158,0.0,-999.0,98,0.00,,,0.00,,2017-05-27 09:28:00,
2017-05-27 05:33:00,63.6,63.0,29.84,South,180,0.0,-999.0,98,0.00,,,0.00,,2017-05-27 09:33:00,
2017-05-27 05:38:00,63.6,63.0,29.84,South,180,0.0,-999.0,98,0.00,,,0.00,,2017-05-27 09:38:00,
2017-05-27 05:49:00,63.6,63.0,29.84,South,180,2.0,-999.0,98,0.00,,,0.00,,2017-05-27 09:49:00,
2017-05-27 05:54:00,63.4,63.0,29.84,South,180,2.0,-999.0,98,0.00,,,0.00,,2017-05-27 09:54:00,
2017-05-27 06:00:00,63.4,63.0,29.84,SSW,203,1.0,-999.0,98,0.00,,,0.00,,2017-05-27 10:00:00,
2017-05-27 06:05:00,63.9,63.0,29.84,South,180,2.0,-999.0,98,0.00,,,0.00,,2017-05-27 10:05:00,
2017-05-27 06:11:00,63.9,63.0,29.85,SSE,158,2.0,-999.0,98,0.00,,,0.00,,2017-05-27 10:11:00,
2017-05-27 06:16:00,63.9,63.0,29.84,South,180,1.0,-999.0,98,0.00,,,0.00,,2017-05-27 10:16:00,
2017-05-27 06:21:00,63.9,63.0,29.85,SSE,158,2.0,-999.0,98,0.00,,,0.00,,2017-05-27 10:21:00,
2017-05-27 06:27:00,63.9,63.0,29.85,SSE,158,1.0,-999.0,98,0.00,,,0.00,,2017-05-27 10:27:00,
2017-05-27 06:32:00,63.9,63.0,29.85,South,180,1.0,-999.0,98,0.00,,,0.00,,2017-05-27 10:32:00,
2017-05-27 06:38:00,64.1,63.0,29.85,SSE,158,2.0,-999.0,98,0.00,,,0.00,,2017-05-27 10:38:00,
2017-05-27 06:43:00,64.1,63.0,29.85,South,180,1.0,-999.0,98,0.00,,,0.00,,2017-05-27 10:43:00,
2017-05-27 06:48:00,64.1,63.0,29.85,SSE,158,1.0,-999.0,98,0.00,,,0.00,,2017-05-27 10:48:00,
2017-05-27 06:54:00,64.4,64.0,29.85,SSE,158,1.0,-999.0,98,0.00,,,0.00,,2017-05-27 10:54:00,
2017-05-27 06:59:00,64.4,64.0,29.85,SSE,158,1.0,-999.0,98,0.00,,,0.00,,2017-05-27 10:59:00,
2017-05-27 07:05:00,64.6,64.0,29.85,South,180,1.0,-999.0,98,0.00,,,0.00,,2017-05-27 11:05:00,
2017-05-27 07:10:00,64.6,64.0,29.86,South,180,1.0,-999.0,98,0.00,,,0.00,,2017-05-27 11:10:00,
2017-05-27 07:15:00,64.8,64.0,29.86,SSE,158,1.0,-999.0,98,0.00,,,0.00,,2017-05-27 11:15:00,
2017-05-27 07:21:00,64.8,64.0,29.86,South,180,1.0,-999.0,98,0.00,,,0.00,,2017-05-27 11:21:00,
2017-05-27 07:26:00,64.9,64.0,29.86,South,180,2.0,-999.0,98,0.00,,,0.00,,2017-05-27 11:26:00,
2017-05-27 07:32:00,65.0,64.0,29.86,SSE,158,1.0,-999.0,98,0.00,,,0.00,,2017-05-27 11:32:00,
2017-05-27 07:37:00,65.0,64.0,29.86,South,180,2.0,-999.0,98,0.00,,,0.00,,2017-05-27 11:37:00,
2017-05-27 07:42:00,65.2,65.0,29.86,South,180,2.0,-999.0,98,0.00,,,0.00,,2017-05-27 11:42:00,
2017-05-27 07:48:00,65.5,65.0,29.86,SSW,203,1.0,-999.0,98,0.00,,,0.00,,2017-05-27 11:48:00,
2017-05-27 07:53:00,65.8,65.0,29.86,SSE,158,2.0,-999.0,98,0.00,,,0.00,,2017-05-27 11:53:00,
2017-05-27 08:04:00,66.6,66.0,29.86,South,180,3.0,-999.0,98,0.00,,,0.00,,2017-05-27 12:04:00,
2017-05-27 08:09:00,67.1,66.0,29.87,South,180,2.0,-999.0,98,0.00,,,0.00,,2017-05-27 12:09:00,
2017-05-27 08:15:00,67.8,67.0,29.87,South,180,1.0,-999.0,98,0.00,,,0.00,,2017-05-27 12:15:00,
2017-05-27 08:20:00,68.1,67.0,29.87,South,180,1.0,-999.0,98,0.00,,,0.00,,2017-05-27 12:20:00,
2017-05-27 08:26:00,68.4,68.0,29.88,South,180,2.0,-999.0,98,0.00,,,0.00,,2017-05-27 12:26:00,
2017-05-27 08:31:00,68.6,68.0,29.88,South,180,1.0,-999.0,98,0.00,,,0.00,,2017-05-27 12:31:00,
2017-05-27 08:36:00,68.9,68.0,29.87,West,270,2.0,-999.0,98,0.00,,,0.00,,2017-05-27 12:36:00,
2017-05-27 08:37:00,68.9,68.0,29.87,West,270,2.0,-999.0,98,0.00,,,0.00,,2017-05-27 12:37:00,
2017-05-27 08:42:00,69.3,69.0,29.87,West,270,3.0,-999.0,98,0.00,,,0.00,,2017-05-27 12:42:00,
2017-05-27 08:48:00,69.3,69.0,29.87,SW,225,3.0,-999.0,98,0.00,,,0.00,,2017-05-27 12:48:00,
2017-05-27 08:49:00,69.3,69.0,29.87,South,180,1.0,-999.0,98,0.00,,,0.00,,2017-05-27 12:49:00,
2017-05-27 08:54:00,70.1,69.0,29.87,East,90,1.0,-999.0,98,0.00,,,0.00,,2017-05-27 12:54:00,
2017-05-27 09:00:00,70.3,70.0,29.87,WNW,293,3.0,-999.0,98,0.00,,,0.00,,2017-05-27 13:00:00,
2017-05-27 09:05:00,70.5,70.0,29.87,West,270,1.0,-999.0,98,0.00,,,0.00,,2017-05-27 13:05:00,
2017-05-27 09:11:00,70.6,70.0,29.87,West,270,2.0,-999.0,98,0.00,,,0.00,,2017-05-27 13:11:00,
2017-05-27 09:16:00,70.6,70.0,29.87,SSW,203,5.0,-999.0,98,0.00,,,0.00,,2017-05-27 13:16:00,